#timestamp,LO_Frequency,Hit 
1502118015.5,286046960.0,N
1502118035.4,286046962.7,N
1502118055.2,286046961.8,N
1502118075.0,286046960.4,N
1502118075.9,286046960.4,N
1502118095.8,286046960.4,N
1502118115.6,286046960.9,N
1502118135.4,286046960.7,N
1502118155.3,286046959.2,N
1502118175.1,286046960.8,N
1502118176.0,286046960.8,N
1502118195.8,286046958.9,N
1502118215.7,286046959.1,N
1502118235.5,286046958.8,N
1502118255.3,286046959.1,N
1502118275.1,286046961.2,N
1502118295.9,286046960.8,N
1502118315.7,286046959.6,N
1502118335.5,286046957.1,N
1502118355.4,286046956.5,N
1502118375.2,286046960.6,N
1502118395.0,286046959.5,N
1502118395.9,286046959.5,N
1502118415.8,286046957.5,N
1502118435.6,286046955.7,N
1502118455.4,286046956.6,N
1502118475.3,286046957.1,N
1502118495.1,286046956.1,N
1502118496.0,286046956.1,N
1502118515.8,286046955.8,N
1502118535.7,286046957.0,N
1502118555.5,286046959.3,N
1502118575.3,286046959.4,N
1502118595.1,286046955.0,N
1502118615.9,286046955.4,N
1502118635.7,286046957.9,N
1502118655.5,286046956.6,N
1502118675.4,286046959.4,N
1502118695.2,286046957.7,N
1502118715.0,286046957.3,N
1502118715.9,286046957.3,N
1502118735.8,286046958.9,N
1502118755.6,286046958.9,N
1502118775.4,286046958.8,N
1502118795.3,286046959.4,N
1502118815.1,286046958.2,N
1502118816.0,286046958.2,N
1502118835.8,286046959.4,N
1502118855.7,286046956.6,N
1502118875.5,286046959.6,N
1502118895.3,286046959.1,N
1502118915.1,286046959.4,N
1502118935.9,286046954.9,N
1502118955.7,286046957.9,N
1502118975.5,286046956.6,N
1502118995.4,286046958.6,N
1502119015.2,286046959.3,N
1502119035.0,286046958.9,N
1502119035.9,286046958.9,N
1502119055.8,286046958.5,N
1502119075.6,286046960.8,N
1502119095.4,286046958.2,N
1502119115.3,286046958.9,N
1502119135.1,286046959.2,N
1502119136.0,286046959.2,N
1502119155.8,286046954.9,N
1502119175.7,286046956.7,N
1502119195.5,286046957.2,N
1502119215.3,286046955.7,N
1502119235.1,286046953.3,N
1502119255.9,286046955.2,N
1502119275.7,286046959.0,N
1502119295.5,286046957.3,N
1502119315.4,286046956.6,N
1502119335.2,286046955.0,N
1502119355.0,286046956.6,N
1502119355.9,286046956.6,N
1502119375.8,286046957.8,N
1502119395.6,286046958.8,N
1502119415.4,286046955.0,N
1502119435.3,286046955.1,N
1502119455.1,286046955.1,N
1502119456.0,286046955.1,N
1502119475.8,286046955.1,N
1502119495.7,286046957.1,N
1502119515.5,286046957.8,N
1502119535.3,286046959.6,N
1502119555.2,286046955.0,N
1502119575.9,286046957.7,N
1502119595.7,286046955.0,N
1502119615.5,286046957.6,N
1502119635.4,286046954.9,N
1502119655.2,286046958.3,N
1502119675.0,286046958.8,N
1502119675.9,286046958.8,N
1502119695.8,286046958.8,N
1502119715.6,286046960.6,N
1502119735.4,286046960.5,N
1502119755.3,286046959.9,N
1502119775.1,286046959.0,N
1502119776.0,286046959.0,N
1502119795.8,286046956.7,N
1502119815.7,286046956.7,N
1502119835.5,286046959.6,N
1502119855.3,286046958.3,N
1502119875.2,286046958.4,N
1502119895.9,286046958.0,N
1502119915.7,286046961.2,N
1502119935.5,286046958.5,N
1502119955.4,286046960.8,N
1502119975.2,286046962.7,N
1502119995.0,286046959.8,N
1502119995.9,286046959.8,N
1502120015.8,286046958.4,N
1502120035.6,286046956.7,N
1502120055.4,286046956.1,N
1502120075.3,286046956.3,N
1502120095.1,286046955.6,N
1502120096.0,286046955.6,N
1502120115.8,286046956.4,N
1502120135.7,286046955.0,N
1502120155.5,286046953.4,N
1502120175.3,286046954.5,N
1502120195.2,286046952.0,N
1502120215.9,286046954.8,N
1502120235.7,286046951.7,N
1502120255.5,286046953.9,N
1502120275.4,286046954.3,N
1502120295.2,286046954.0,N
1502120315.0,286046953.1,N
1502120315.9,286046953.1,N
1502120335.8,286046951.9,N
1502120355.6,286046950.1,N
1502120375.4,286046952.1,N
1502120395.3,286046950.1,N
1502120415.1,286046952.8,N
1502120416.0,286046952.8,N
1502120435.8,286046953.6,N
1502120455.7,286046955.7,N
1502120475.5,286046956.3,N
1502120495.3,286046956.3,N
1502120515.2,286046957.8,N
1502120535.9,286046958.8,N
1502120555.7,286046959.5,N
1502120575.5,286046955.8,N
1502120595.4,286046955.2,N
1502120615.2,286046955.6,N
1502120635.0,286046955.4,N
1502120635.9,286046955.4,N
1502120655.8,286046957.5,N
1502120675.6,286046956.7,N
1502120695.4,286046957.7,N
1502120715.3,286046956.5,N
1502120735.1,286046955.8,N
1502120736.0,286046955.8,N
1502120755.8,286046957.1,N
1502120775.7,286046956.9,N
1502120795.5,286046960.8,N
1502120815.3,286046958.8,N
1502120835.2,286046961.2,N
1502120855.9,286046957.1,N
1502120875.7,286046956.8,N
1502120895.5,286046955.7,N
1502120915.4,286046955.6,N
1502120935.2,286046956.1,N
1502120955.0,286046958.0,N
1502120955.9,286046958.0,N
1502120975.8,286046955.4,N
1502120995.6,286046955.5,N
1502121015.4,286046957.5,N
1502121035.3,286046953.7,N
1502121055.1,286046951.8,N
1502121056.0,286046951.8,N
1502121075.8,286046954.8,N
1502121095.7,286046954.4,N
1502121115.5,286046952.0,N
1502121135.3,286046952.2,N
1502121155.2,286046952.6,N
1502121175.9,286046952.2,N
1502121195.7,286046953.9,N
1502121215.5,286046952.5,N
1502121235.4,286046954.2,N
1502121255.2,286046953.5,N
1502121275.0,286046952.1,N
1502121275.9,286046952.1,N
1502121295.8,286046954.4,N
1502121315.6,286046953.7,N
1502121335.4,286046956.0,N
1502121355.3,286046957.5,N
1502121375.1,286046957.3,N
1502121376.0,286046957.3,N
1502121395.8,286046956.1,N
1502121415.7,286046951.7,N
1502121435.5,286046954.9,N
1502121455.3,286046953.7,N
1502121475.2,286046954.5,N
1502121495.9,286046954.3,N
1502121515.7,286046953.8,N
1502121535.5,286046955.5,N
1502121555.4,286046954.5,N
1502121575.2,286046957.4,N
1502121595.0,286046959.0,N
1502121595.9,286046959.0,N
